Time,TemperatureF,DewpointF,PressureIn,WindDirection,WindDirectionDegrees,WindSpeedMPH,WindSpeedGustMPH,Humidity,HourlyPrecipIn,Conditions,Clouds,dailyrainin,SolarRadiationWatts/m^2,SoftwareType,DateUTC
2013-09-15 00:12:00,44.0,39.0,-100.00,SE,132,4.0,7.0,84,0.02,,,-99.99,0.000000,,2013-09-15 06:12:00,
2013-09-15 00:21:00,44.0,39.0,-100.00,SE,132,4.0,7.0,84,0.02,,,-99.99,0.000000,,2013-09-15 06:21:00,
2013-09-15 00:32:00,44.0,39.0,-100.00,SE,132,4.0,7.0,84,0.02,,,-99.99,0.000000,,2013-09-15 06:32:00,
2013-09-15 00:42:00,44.0,39.0,-100.00,SE,132,4.0,7.0,84,0.02,,,-99.99,0.000000,,2013-09-15 06:42:00,
2013-09-15 01:11:00,43.0,42.0,-100.00,SW,230,3.0,9.0,97,0.00,,,0.32,0.000000,,2013-09-15 07:11:00,
2013-09-15 01:22:00,43.0,42.0,-100.00,SW,230,3.0,9.0,97,0.00,,,0.32,0.000000,,2013-09-15 07:22:00,
2013-09-15 01:33:00,43.0,42.0,-100.00,SW,230,3.0,9.0,97,0.00,,,0.32,0.000000,,2013-09-15 07:33:00,
2013-09-15 01:42:00,43.0,42.0,-100.00,SW,230,3.0,9.0,97,0.00,,,0.32,0.000000,,2013-09-15 07:42:00,
2013-09-15 02:11:00,46.0,41.0,-100.00,NNE,15,0.0,5.0,83,0.00,,,0.32,0.000000,,2013-09-15 08:11:00,
2013-09-15 02:21:00,46.0,41.0,-100.00,NNE,15,0.0,5.0,83,0.00,,,0.32,0.000000,,2013-09-15 08:21:00,
2013-09-15 02:32:00,46.0,41.0,-100.00,NNE,15,0.0,5.0,83,0.00,,,0.32,0.000000,,2013-09-15 08:32:00,
2013-09-15 02:43:00,46.0,41.0,-100.00,NNE,15,0.0,5.0,83,0.00,,,0.32,0.000000,,2013-09-15 08:43:00,
2013-09-15 03:12:00,42.0,40.0,-100.00,NE,52,5.0,8.0,93,0.00,,,0.32,0.000000,,2013-09-15 09:12:00,
2013-09-15 03:21:00,42.0,40.0,-100.00,NE,52,5.0,8.0,93,0.00,,,0.32,0.000000,,2013-09-15 09:21:00,
2013-09-15 03:33:00,42.0,40.0,-100.00,NE,52,5.0,8.0,93,0.00,,,0.32,0.000000,,2013-09-15 09:33:00,
2013-09-15 03:43:00,42.0,40.0,-100.00,NE,52,5.0,8.0,93,0.00,,,0.32,0.000000,,2013-09-15 09:43:00,
2013-09-15 04:13:00,43.0,40.0,-100.00,NE,42,3.0,7.0,90,0.00,,,0.32,0.000000,,2013-09-15 10:13:00,
2013-09-15 04:23:00,43.0,40.0,-100.00,NE,42,3.0,7.0,90,0.00,,,0.32,0.000000,,2013-09-15 10:23:00,
2013-09-15 04:32:00,43.0,40.0,-100.00,NE,42,3.0,7.0,90,0.00,,,0.32,0.000000,,2013-09-15 10:32:00,
2013-09-15 04:43:00,43.0,40.0,-100.00,NE,42,3.0,7.0,90,0.00,,,0.32,0.000000,,2013-09-15 10:43:00,
2013-09-15 05:12:00,45.0,42.0,-100.00,ESE,105,0.0,6.0,88,0.00,,,0.32,0.000000,,2013-09-15 11:12:00,
2013-09-15 05:22:00,45.0,42.0,-100.00,ESE,105,0.0,6.0,88,0.00,,,0.32,0.000000,,2013-09-15 11:22:00,
2013-09-15 05:33:00,45.0,42.0,-100.00,ESE,105,0.0,6.0,88,0.00,,,0.32,0.000000,,2013-09-15 11:33:00,
2013-09-15 05:42:00,45.0,42.0,-100.00,ESE,105,0.0,6.0,88,0.00,,,0.32,0.000000,,2013-09-15 11:42:00,
2013-09-15 06:12:00,43.0,41.0,-100.00,SSW,195,0.0,4.0,92,0.00,,,0.32,0.000000,,2013-09-15 12:12:00,
2013-09-15 06:21:00,43.0,41.0,-100.00,SSW,195,0.0,4.0,92,0.00,,,0.32,0.000000,,2013-09-15 12:21:00,
2013-09-15 06:31:00,43.0,41.0,-100.00,SSW,195,0.0,4.0,92,0.00,,,0.32,0.000000,,2013-09-15 12:31:00,
2013-09-15 06:42:00,43.0,41.0,-100.00,SSW,195,0.0,4.0,92,0.00,,,0.32,0.000000,,2013-09-15 12:42:00,
2013-09-15 07:11:00,43.0,41.0,-100.00,South,178,0.0,4.0,93,0.00,,,0.32,0.000000,,2013-09-15 13:11:00,
2013-09-15 07:21:00,43.0,41.0,-100.00,South,178,0.0,4.0,93,0.00,,,0.32,0.000000,,2013-09-15 13:21:00,
2013-09-15 07:32:00,43.0,41.0,-100.00,South,178,0.0,4.0,93,0.00,,,0.32,0.000000,,2013-09-15 13:32:00,
2013-09-15 07:42:00,43.0,41.0,-100.00,South,178,0.0,4.0,93,0.00,,,0.32,0.000000,,2013-09-15 13:42:00,
2013-09-15 08:11:00,43.0,42.0,-100.00,ENE,77,1.0,4.0,97,0.00,,,0.32,34.000000,,2013-09-15 14:11:00,
2013-09-15 08:22:00,43.0,42.0,-100.00,ENE,77,1.0,4.0,97,0.00,,,0.32,34.000000,,2013-09-15 14:22:00,
2013-09-15 13:22:00,57.0,46.0,-100.00,WSW,244,3.0,8.0,66,0.00,,,0.31,502.000000,,2013-09-15 19:22:00,
2013-09-15 13:32:00,57.0,46.0,-100.00,WSW,244,3.0,8.0,66,0.00,,,0.31,502.000000,,2013-09-15 19:32:00,
2013-09-15 13:42:00,57.0,46.0,-100.00,WSW,244,3.0,8.0,66,0.00,,,0.31,502.000000,,2013-09-15 19:42:00,
2013-09-15 14:11:00,59.0,44.0,-100.00,NE,38,1.0,7.0,58,0.00,,,0.28,562.000000,,2013-09-15 20:11:00,
2013-09-15 14:22:00,59.0,44.0,-100.00,NE,38,1.0,7.0,58,0.00,,,0.28,562.000000,,2013-09-15 20:22:00,
2013-09-15 14:32:00,59.0,44.0,-100.00,NE,38,1.0,7.0,58,0.00,,,0.28,562.000000,,2013-09-15 20:32:00,
2013-09-15 14:42:00,59.0,44.0,-100.00,NE,38,1.0,7.0,58,0.00,,,0.28,562.000000,,2013-09-15 20:42:00,
2013-09-15 15:11:00,52.0,44.0,-100.00,ENE,73,7.0,11.0,73,0.00,,,0.09,130.000000,,2013-09-15 21:11:00,
2013-09-15 15:21:00,52.0,44.0,-100.00,ENE,73,7.0,11.0,73,0.00,,,0.09,130.000000,,2013-09-15 21:21:00,
2013-09-15 15:34:00,52.0,44.0,-100.00,ENE,73,7.0,11.0,73,0.00,,,0.09,130.000000,,2013-09-15 21:34:00,
2013-09-15 15:44:00,52.0,44.0,-100.00,ENE,73,7.0,11.0,73,0.00,,,0.09,130.000000,,2013-09-15 21:44:00,
2013-09-15 16:14:00,55.0,41.0,-100.00,East,81,10.0,19.0,59,0.00,,,0.09,627.000000,,2013-09-15 22:14:00,
2013-09-15 16:23:00,55.0,41.0,-100.00,East,81,10.0,19.0,59,0.00,,,0.09,627.000000,,2013-09-15 22:23:00,
2013-09-15 16:33:00,55.0,41.0,-100.00,East,81,10.0,19.0,59,0.00,,,0.09,627.000000,,2013-09-15 22:33:00,
2013-09-15 16:43:00,55.0,41.0,-100.00,East,81,10.0,19.0,59,0.00,,,0.09,627.000000,,2013-09-15 22:43:00,
2013-09-15 17:12:00,47.0,43.0,-100.00,West,272,7.0,31.0,86,0.11,,,0.20,38.000000,,2013-09-15 23:12:00,
2013-09-15 17:22:00,47.0,43.0,-100.00,West,272,7.0,31.0,86,0.11,,,0.20,38.000000,,2013-09-15 23:22:00,
2013-09-15 17:33:00,47.0,43.0,-100.00,West,272,7.0,31.0,86,0.11,,,0.20,38.000000,,2013-09-15 23:33:00,
2013-09-15 17:42:00,47.0,43.0,-100.00,West,272,7.0,31.0,86,0.11,,,0.20,38.000000,,2013-09-15 23:42:00,
2013-09-15 18:11:00,49.0,44.0,-100.00,ENE,77,5.0,11.0,83,0.01,,,0.21,53.000000,,2013-09-16 00:11:00,
2013-09-15 18:22:00,49.0,44.0,-100.00,ENE,77,5.0,11.0,83,0.01,,,0.21,53.000000,,2013-09-16 00:22:00,
2013-09-15 18:32:00,49.0,44.0,-100.00,ENE,77,5.0,11.0,83,0.01,,,0.21,53.000000,,2013-09-16 00:32:00,
2013-09-15 18:42:00,49.0,44.0,-100.00,ENE,77,5.0,11.0,83,0.01,,,0.21,53.000000,,2013-09-16 00:42:00,
2013-09-15 19:12:00,46.0,43.0,-100.00,WNW,287,0.0,8.0,88,0.02,,,0.16,36.000000,,2013-09-16 01:12:00,
2013-09-15 19:21:00,46.0,43.0,-100.00,WNW,287,0.0,8.0,88,0.02,,,0.16,36.000000,,2013-09-16 01:21:00,
2013-09-15 19:31:00,46.0,43.0,-100.00,WNW,287,0.0,8.0,88,0.02,,,0.16,36.000000,,2013-09-16 01:31:00,
2013-09-15 19:42:00,46.0,43.0,-100.00,WNW,287,0.0,8.0,88,0.02,,,0.16,36.000000,,2013-09-16 01:42:00,
2013-09-15 20:12:00,45.0,44.0,-100.00,East,95,6.0,16.0,97,0.02,,,0.18,5.000000,,2013-09-16 02:12:00,
2013-09-15 20:22:00,45.0,44.0,-100.00,East,95,6.0,16.0,97,0.02,,,0.18,5.000000,,2013-09-16 02:22:00,
2013-09-15 20:32:00,45.0,44.0,-100.00,East,95,6.0,16.0,97,0.02,,,0.18,5.000000,,2013-09-16 02:32:00,
2013-09-15 20:42:00,45.0,44.0,-100.00,East,95,6.0,16.0,97,0.02,,,0.18,5.000000,,2013-09-16 02:42:00,
2013-09-15 21:11:00,44.0,43.0,-100.00,SW,218,4.0,8.0,97,0.00,,,0.18,0.000000,,2013-09-16 03:11:00,
2013-09-15 21:22:00,44.0,43.0,-100.00,SW,218,4.0,8.0,97,0.00,,,0.18,0.000000,,2013-09-16 03:22:00,
2013-09-15 21:34:00,44.0,43.0,-100.00,SW,218,4.0,8.0,97,0.00,,,0.18,0.000000,,2013-09-16 03:34:00,
2013-09-15 21:44:00,44.0,43.0,-100.00,SW,218,4.0,8.0,97,0.00,,,0.18,0.000000,,2013-09-16 03:44:00,
2013-09-15 22:13:00,46.0,41.0,-100.00,SE,133,2.0,8.0,84,0.00,,,0.18,0.000000,,2013-09-16 04:13:00,
2013-09-15 22:24:00,46.0,41.0,-100.00,SE,133,2.0,8.0,84,0.00,,,0.18,0.000000,,2013-09-16 04:24:00,
2013-09-15 22:34:00,46.0,41.0,-100.00,SE,133,2.0,8.0,84,0.00,,,0.18,0.000000,,2013-09-16 04:34:00,
2013-09-15 22:43:00,46.0,41.0,-100.00,SE,133,2.0,8.0,84,0.00,,,0.18,0.000000,,2013-09-16 04:43:00,
2013-09-15 23:13:00,45.0,42.0,-100.00,NNE,26,0.0,3.0,89,0.00,,,0.18,0.000000,,2013-09-16 05:13:00,
2013-09-15 23:22:00,45.0,42.0,-100.00,NNE,26,0.0,3.0,89,0.00,,,0.18,0.000000,,2013-09-16 05:22:00,
2013-09-15 23:33:00,45.0,42.0,-100.00,NNE,26,0.0,3.0,89,0.00,,,0.18,0.000000,,2013-09-16 05:33:00,
2013-09-15 23:44:00,45.0,42.0,-100.00,NNE,26,0.0,3.0,89,0.00,,,0.18,0.000000,,2013-09-16 05:44:00,